Year,Month,Day,Hour,Minute,Value (Times are PST for temperature in C)
2017,08,09,00,00,15.40
2017,08,09,00,01,15.40
2017,08,09,00,02,15.40
2017,08,09,00,03,15.40
2017,08,09,00,04,15.40
2017,08,09,00,05,15.40
2017,08,09,00,06,15.40
2017,08,09,00,07,15.40
2017,08,09,00,08,15.40
2017,08,09,00,09,15.40
2017,08,09,00,10,15.40
2017,08,09,00,11,15.40
2017,08,09,00,12,15.40
2017,08,09,00,13,15.40
2017,08,09,00,14,15.40
2017,08,09,00,15,15.40
2017,08,09,00,16,15.40
2017,08,09,00,17,15.40
2017,08,09,00,18,15.40
2017,08,09,00,19,15.40
2017,08,09,00,20,15.40
2017,08,09,00,21,15.40
2017,08,09,00,22,15.40
2017,08,09,00,23,15.40
2017,08,09,00,24,15.40
2017,08,09,00,25,15.40
2017,08,09,00,26,15.40
2017,08,09,00,27,15.40
2017,08,09,00,28,15.50
2017,08,09,00,29,15.40
2017,08,09,00,30,15.40
2017,08,09,00,31,15.40
2017,08,09,00,32,15.40
2017,08,09,00,33,15.50
2017,08,09,00,34,15.40
2017,08,09,00,35,15.40
2017,08,09,00,36,15.50
2017,08,09,00,37,15.50
2017,08,09,00,38,15.50
2017,08,09,00,39,15.50
2017,08,09,00,40,15.50
2017,08,09,00,41,15.50
2017,08,09,00,42,15.50
2017,08,09,00,43,15.50
2017,08,09,00,44,15.50
2017,08,09,00,45,15.50
2017,08,09,00,46,15.50
2017,08,09,00,47,15.50
2017,08,09,00,48,15.50
2017,08,09,00,49,15.50
2017,08,09,00,50,15.50
2017,08,09,00,51,15.40
2017,08,09,00,52,15.40
2017,08,09,00,53,15.40
2017,08,09,00,54,15.40
2017,08,09,00,55,15.40
2017,08,09,00,56,15.40
2017,08,09,00,57,15.40
2017,08,09,00,58,15.40
2017,08,09,00,59,15.40
2017,08,09,01,00,15.40
2017,08,09,01,01,15.40
2017,08,09,01,02,15.40
2017,08,09,01,03,15.30
2017,08,09,01,04,15.30
2017,08,09,01,05,15.30
2017,08,09,01,06,15.30
2017,08,09,01,07,15.30
2017,08,09,01,08,15.30
2017,08,09,01,09,15.30
2017,08,09,01,10,15.30
2017,08,09,01,11,15.30
2017,08,09,01,12,15.30
2017,08,09,01,13,15.40
2017,08,09,01,14,15.40
2017,08,09,01,15,15.40
2017,08,09,01,16,15.40
2017,08,09,01,17,15.40
2017,08,09,01,18,15.40
2017,08,09,01,19,15.40
2017,08,09,01,20,15.40
2017,08,09,01,21,15.40
2017,08,09,01,22,15.40
2017,08,09,01,23,15.30
2017,08,09,01,24,15.30
2017,08,09,01,25,15.30
2017,08,09,01,26,15.30
2017,08,09,01,27,15.30
2017,08,09,01,28,15.30
2017,08,09,01,29,15.30
2017,08,09,01,30,15.30
2017,08,09,01,31,15.30
2017,08,09,01,32,15.30
2017,08,09,01,33,15.20
2017,08,09,01,34,15.20
2017,08,09,01,35,15.20
2017,08,09,01,36,15.20
2017,08,09,01,37,15.20
2017,08,09,01,38,15.20
2017,08,09,01,39,15.20
2017,08,09,01,40,15.20
2017,08,09,01,41,15.20
2017,08,09,01,42,15.10
2017,08,09,01,43,15.10
2017,08,09,01,44,15.10
2017,08,09,01,45,15.10
2017,08,09,01,46,15.00
2017,08,09,01,47,15.00
2017,08,09,01,48,15.00
2017,08,09,01,49,14.90
2017,08,09,01,50,14.90
2017,08,09,01,51,14.90
2017,08,09,01,52,14.90
2017,08,09,01,53,14.90
2017,08,09,01,54,14.90
2017,08,09,01,55,14.90
2017,08,09,01,56,14.80
2017,08,09,01,57,14.80
2017,08,09,01,58,14.80
2017,08,09,01,59,14.80
2017,08,09,02,00,14.80
2017,08,09,02,01,14.80
2017,08,09,02,02,14.80
2017,08,09,02,03,14.80
2017,08,09,02,04,14.80
2017,08,09,02,05,14.80
2017,08,09,06,53,14.30
2017,08,09,06,54,14.30
2017,08,09,06,55,14.40
2017,08,09,06,56,14.40
2017,08,09,06,57,14.40
2017,08,09,06,58,14.40
2017,08,09,06,59,14.40
2017,08,09,07,00,14.50
2017,08,09,07,01,14.50
2017,08,09,07,02,14.60
2017,08,09,07,03,14.60
2017,08,09,07,04,14.60
2017,08,09,07,05,14.70
2017,08,09,07,06,14.70
2017,08,09,07,07,14.70
2017,08,09,07,08,14.80
2017,08,09,07,09,14.80
2017,08,09,07,10,14.80
2017,08,09,07,11,14.80
2017,08,09,07,12,14.80
2017,08,09,07,13,14.90
2017,08,09,07,14,14.90
2017,08,09,07,15,14.90
2017,08,09,07,16,14.90
2017,08,09,07,17,14.90
2017,08,09,07,18,14.90
2017,08,09,07,19,14.90
2017,08,09,07,20,15.00
2017,08,09,07,21,15.00
2017,08,09,07,22,15.00
2017,08,09,07,23,15.00
2017,08,09,07,24,15.00
2017,08,09,07,25,15.00
2017,08,09,07,26,15.10
2017,08,09,07,27,15.10
2017,08,09,07,28,15.10
2017,08,09,07,29,15.20
2017,08,09,07,30,15.20
2017,08,09,07,31,15.20
2017,08,09,07,32,15.30
2017,08,09,07,33,15.30
2017,08,09,07,34,15.30
2017,08,09,07,35,15.40
2017,08,09,07,36,15.40
2017,08,09,07,37,15.40
2017,08,09,07,38,15.50
2017,08,09,07,39,15.50
2017,08,09,07,40,15.50
2017,08,09,07,41,15.60
2017,08,09,07,42,15.60
2017,08,09,07,43,15.60
2017,08,09,07,44,15.70
2017,08,09,07,45,15.70
2017,08,09,07,46,15.70
2017,08,09,07,47,15.80
2017,08,09,07,48,15.80
2017,08,09,07,49,15.90
2017,08,09,07,50,15.90
2017,08,09,07,51,16.00
2017,08,09,07,52,16.00
2017,08,09,07,53,16.10
2017,08,09,07,54,16.10
2017,08,09,07,55,16.20
2017,08,09,07,56,16.30
2017,08,09,07,57,16.40
2017,08,09,07,58,16.50
2017,08,09,07,59,16.50
2017,08,09,08,00,16.60
2017,08,09,08,01,16.70
2017,08,09,08,02,16.80
2017,08,09,08,03,16.90
2017,08,09,08,04,16.90
2017,08,09,08,05,17.00
2017,08,09,08,06,17.00
2017,08,09,08,07,17.10
2017,08,09,08,08,17.20
2017,08,09,08,09,17.20
2017,08,09,08,10,17.30
2017,08,09,08,11,17.30
2017,08,09,08,12,17.40
2017,08,09,08,13,17.40
2017,08,09,08,14,17.50
2017,08,09,08,15,17.50
2017,08,09,08,16,17.60
2017,08,09,08,17,17.70
2017,08,09,08,18,17.70
2017,08,09,08,19,17.70
2017,08,09,08,20,17.80
2017,08,09,08,21,17.80
2017,08,09,08,22,17.90
2017,08,09,08,23,17.90
2017,08,09,08,24,18.00
2017,08,09,08,25,18.00
2017,08,09,08,26,18.10
2017,08,09,08,27,18.10
2017,08,09,08,28,18.20
2017,08,09,08,29,18.20
2017,08,09,08,30,18.30
2017,08,09,08,31,18.30
2017,08,09,08,32,18.40
2017,08,09,08,33,18.40
2017,08,09,08,34,18.50
2017,08,09,08,35,18.50
2017,08,09,08,36,18.60
2017,08,09,08,37,18.60
2017,08,09,08,38,18.70
2017,08,09,08,39,18.70
2017,08,09,08,40,18.80
2017,08,09,08,41,18.80
2017,08,09,08,42,18.80
2017,08,09,08,43,18.90
2017,08,09,08,44,18.90
2017,08,09,08,45,19.00
2017,08,09,08,46,19.00
2017,08,09,08,47,19.10
2017,08,09,08,48,19.10
2017,08,09,08,49,19.20
2017,08,09,08,50,19.30
2017,08,09,08,51,19.30
2017,08,09,08,52,19.40
2017,08,09,08,53,19.40
2017,08,09,08,54,19.50
2017,08,09,08,55,19.50
2017,08,09,08,56,19.60
2017,08,09,08,57,19.60
2017,08,09,08,58,19.60
2017,08,09,08,59,19.60
2017,08,09,09,00,19.60
2017,08,09,09,01,19.60
2017,08,09,09,02,19.60
2017,08,09,09,03,19.60
2017,08,09,09,04,19.60
2017,08,09,09,05,19.60
2017,08,09,09,06,19.60
2017,08,09,09,07,19.60
2017,08,09,09,08,19.70
2017,08,09,09,09,19.70
2017,08,09,09,10,19.70
2017,08,09,09,11,19.70
2017,08,09,09,12,19.70
2017,08,09,09,13,19.80
2017,08,09,09,14,19.80
2017,08,09,09,15,19.80
2017,08,09,09,16,19.80
2017,08,09,09,17,19.80
2017,08,09,09,18,19.80
2017,08,09,09,19,19.80
2017,08,09,09,20,19.80
2017,08,09,09,21,19.90
2017,08,09,09,22,19.90
2017,08,09,09,23,19.90
2017,08,09,09,24,20.00
2017,08,09,09,25,20.10
2017,08,09,09,26,20.10
2017,08,09,09,27,20.20
2017,08,09,09,28,20.20
2017,08,09,09,29,20.20
2017,08,09,09,30,20.20
2017,08,09,09,31,20.20
2017,08,09,09,32,20.20
2017,08,09,09,33,20.20
2017,08,09,09,34,20.20
2017,08,09,09,35,20.20
2017,08,09,09,36,20.20
2017,08,09,09,37,20.20
2017,08,09,09,38,20.20
2017,08,09,09,39,20.20
2017,08,09,09,40,20.30
2017,08,09,09,41,20.30
2017,08,09,09,42,20.30
2017,08,09,09,43,20.30
2017,08,09,09,44,20.30
2017,08,09,09,45,20.30
2017,08,09,09,46,20.30
2017,08,09,09,47,20.40
2017,08,09,09,48,20.40
2017,08,09,09,49,20.40
2017,08,09,09,50,20.40
2017,08,09,09,51,20.40
2017,08,09,09,52,20.50
2017,08,09,09,53,20.50
2017,08,09,09,54,20.60
2017,08,09,09,55,20.70
2017,08,09,09,56,20.70
2017,08,09,09,57,20.70
2017,08,09,09,58,20.70
2017,08,09,09,59,20.80
2017,08,09,10,00,20.80
2017,08,09,10,01,20.90
2017,08,09,10,02,20.90
2017,08,09,10,03,21.00
2017,08,09,10,04,21.00
2017,08,09,10,05,21.00
2017,08,09,10,06,21.00
2017,08,09,10,07,20.90
2017,08,09,10,08,20.90
2017,08,09,10,09,20.90
2017,08,09,10,10,20.90
2017,08,09,10,11,20.90
2017,08,09,10,12,20.90
2017,08,09,10,13,20.90
2017,08,09,10,14,21.00
2017,08,09,10,15,21.00
2017,08,09,10,16,21.00
2017,08,09,10,17,20.90
2017,08,09,10,18,20.90
2017,08,09,10,19,20.80
2017,08,09,10,20,20.80
2017,08,09,10,21,20.80
2017,08,09,10,22,20.80
2017,08,09,10,23,20.80
2017,08,09,10,24,20.80
2017,08,09,10,25,20.80
2017,08,09,10,26,20.80
2017,08,09,10,27,20.80
2017,08,09,10,28,20.80
2017,08,09,10,29,20.80
2017,08,09,10,30,20.80
2017,08,09,10,31,20.80
2017,08,09,10,32,20.90
2017,08,09,10,33,20.80
2017,08,09,10,34,20.80
2017,08,09,10,35,20.80
2017,08,09,10,36,20.80
2017,08,09,10,37,20.80
2017,08,09,10,38,20.90
2017,08,09,10,39,20.90
2017,08,09,10,40,20.90
2017,08,09,10,41,20.90
2017,08,09,10,42,20.90
2017,08,09,10,43,20.90
2017,08,09,10,44,20.90
2017,08,09,10,45,20.80
2017,08,09,10,46,20.90
2017,08,09,10,47,20.90
2017,08,09,10,48,21.00
2017,08,09,10,49,21.00
2017,08,09,10,50,21.00
2017,08,09,10,51,21.00
2017,08,09,10,52,20.90
2017,08,09,10,53,21.00
2017,08,09,10,54,21.10
2017,08,09,10,55,21.10
2017,08,09,10,56,21.10
2017,08,09,10,57,21.10
2017,08,09,10,58,21.10
2017,08,09,10,59,21.10
2017,08,09,11,00,21.10
2017,08,09,11,01,21.20
2017,08,09,11,02,21.20
2017,08,09,11,03,21.30
2017,08,09,11,04,21.30
2017,08,09,11,05,21.40
2017,08,09,11,06,21.40
2017,08,09,11,07,21.50
2017,08,09,11,08,21.50
2017,08,09,11,09,21.60
2017,08,09,11,10,21.60
2017,08,09,11,11,21.70
2017,08,09,11,12,21.80
2017,08,09,11,13,21.80
2017,08,09,11,14,21.80
2017,08,09,11,15,21.80
2017,08,09,11,16,21.80
2017,08,09,11,17,21.80
2017,08,09,11,18,21.80
2017,08,09,11,19,21.90
2017,08,09,11,20,21.90
2017,08,09,11,21,21.90
2017,08,09,11,22,22.00
2017,08,09,11,23,22.00
2017,08,09,11,24,22.00
2017,08,09,11,25,21.90
2017,08,09,11,26,21.90
2017,08,09,11,27,21.90
2017,08,09,11,28,21.90
2017,08,09,11,29,21.90
2017,08,09,11,30,22.00
2017,08,09,11,31,22.00
2017,08,09,11,32,22.00
2017,08,09,11,33,22.00
2017,08,09,11,34,22.00
2017,08,09,11,35,22.10
2017,08,09,11,36,22.10
2017,08,09,11,37,22.10
2017,08,09,11,38,22.10
2017,08,09,11,39,22.10
2017,08,09,11,40,22.10
2017,08,09,11,41,22.00
2017,08,09,11,42,22.00
2017,08,09,11,43,21.90
2017,08,09,11,44,21.90
2017,08,09,11,45,21.80
2017,08,09,11,46,21.80
2017,08,09,11,47,21.80
2017,08,09,11,48,21.80
2017,08,09,11,49,21.80
2017,08,09,11,50,21.80
2017,08,09,11,51,21.90
2017,08,09,11,52,21.90
2017,08,09,11,53,22.00
2017,08,09,11,54,22.00
2017,08,09,11,55,22.00
2017,08,09,11,56,22.00
2017,08,09,11,57,22.00
2017,08,09,11,58,22.10
2017,08,09,11,59,22.10
2017,08,09,12,00,22.30
2017,08,09,12,01,22.40
2017,08,09,12,02,22.50
2017,08,09,12,03,22.50
2017,08,09,12,04,22.30
2017,08,09,12,05,22.10
2017,08,09,12,06,21.90
2017,08,09,12,07,21.80
2017,08,09,12,08,21.70
2017,08,09,12,09,21.50
2017,08,09,12,10,21.50
2017,08,09,12,11,21.40
2017,08,09,12,12,21.40
2017,08,09,12,13,21.40
2017,08,09,12,14,21.30
2017,08,09,12,15,21.30
2017,08,09,12,16,21.20
2017,08,09,12,17,21.20
2017,08,09,12,18,21.20
2017,08,09,12,19,21.20
2017,08,09,12,20,21.10
2017,08,09,12,21,21.10
2017,08,09,12,22,21.20
2017,08,09,12,23,21.20
2017,08,09,12,24,21.20
2017,08,09,12,25,21.30
2017,08,09,12,26,21.30
2017,08,09,12,27,21.40
2017,08,09,12,28,21.40
2017,08,09,12,29,21.50
2017,08,09,12,30,21.40
2017,08,09,12,31,21.30
2017,08,09,12,32,21.30
2017,08,09,12,33,21.30
2017,08,09,12,34,21.40
2017,08,09,12,35,21.40
2017,08,09,12,36,21.40
2017,08,09,12,37,21.50
2017,08,09,12,38,21.50
2017,08,09,12,39,21.40
2017,08,09,12,40,21.50
2017,08,09,12,41,21.50
2017,08,09,12,42,21.60
2017,08,09,12,43,21.70
2017,08,09,12,44,21.80
2017,08,09,12,45,21.80
2017,08,09,12,46,21.90
2017,08,09,12,47,21.90
2017,08,09,12,48,21.90
2017,08,09,12,49,22.00
2017,08,09,12,50,22.00
2017,08,09,12,51,22.10
2017,08,09,12,52,22.10
2017,08,09,12,53,22.00
2017,08,09,12,54,22.00
2017,08,09,12,55,22.10
2017,08,09,12,56,22.10
2017,08,09,12,57,22.10
2017,08,09,12,58,22.10
2017,08,09,12,59,22.10
2017,08,09,13,00,22.20
2017,08,09,13,01,22.20
2017,08,09,13,02,22.30
2017,08,09,13,03,22.40
2017,08,09,13,04,22.40
2017,08,09,13,05,22.50
2017,08,09,13,06,22.50
2017,08,09,13,07,22.50
2017,08,09,13,08,22.60
2017,08,09,13,09,22.60
2017,08,09,13,10,22.70
2017,08,09,13,11,22.80
2017,08,09,13,12,22.80
2017,08,09,13,13,22.80
2017,08,09,13,14,22.90
2017,08,09,13,15,22.90
2017,08,09,13,16,22.90
2017,08,09,13,17,22.90
2017,08,09,13,18,23.00
2017,08,09,13,19,23.10
2017,08,09,13,20,23.10
2017,08,09,13,21,23.20
2017,08,09,13,22,23.20
2017,08,09,13,23,23.20
2017,08,09,13,24,23.30
2017,08,09,13,25,23.40
2017,08,09,13,26,23.50
2017,08,09,13,27,23.50
2017,08,09,13,28,23.50
2017,08,09,13,29,23.50
2017,08,09,13,30,23.40
2017,08,09,13,31,23.40
2017,08,09,13,32,23.40
2017,08,09,13,33,23.40
2017,08,09,13,34,23.40
2017,08,09,13,35,23.30
2017,08,09,13,36,23.30
2017,08,09,13,37,23.40
2017,08,09,13,38,23.40
2017,08,09,13,39,23.40
2017,08,09,13,40,23.40
2017,08,09,13,41,23.40
2017,08,09,13,42,23.40
2017,08,09,13,43,23.30
2017,08,09,13,44,23.30
2017,08,09,13,45,23.20
2017,08,09,13,46,23.20
2017,08,09,13,47,23.10
2017,08,09,13,48,23.10
2017,08,09,13,49,23.10
2017,08,09,13,50,23.20
2017,08,09,13,51,23.20
2017,08,09,13,52,23.20
2017,08,09,13,53,23.10
2017,08,09,13,54,23.10
2017,08,09,13,55,23.20
2017,08,09,13,56,23.20
2017,08,09,13,57,23.20
2017,08,09,13,58,23.20
2017,08,09,13,59,23.10
2017,08,09,14,00,23.10
2017,08,09,14,01,23.10
2017,08,09,14,02,23.10
2017,08,09,14,03,23.10
2017,08,09,14,04,23.20
2017,08,09,14,05,23.10
2017,08,09,14,06,23.10
2017,08,09,14,07,23.00
2017,08,09,14,08,22.90
2017,08,09,14,09,23.00
2017,08,09,14,10,23.00
2017,08,09,14,11,23.10
2017,08,09,14,12,23.10
2017,08,09,14,13,23.10
2017,08,09,14,14,23.10
2017,08,09,14,15,23.10
2017,08,09,14,16,23.00
2017,08,09,14,17,22.90
2017,08,09,14,18,22.70
2017,08,09,14,19,22.50
2017,08,09,14,20,22.30
2017,08,09,14,21,22.20
2017,08,09,14,22,22.10
2017,08,09,14,23,22.10
2017,08,09,14,24,22.10
2017,08,09,14,25,22.20
2017,08,09,14,26,22.20
2017,08,09,14,27,22.30
2017,08,09,14,28,22.30
2017,08,09,14,29,22.30
2017,08,09,14,30,22.30
2017,08,09,14,31,22.30
2017,08,09,14,32,22.30
2017,08,09,14,33,22.30
2017,08,09,14,34,22.30
2017,08,09,14,35,22.30
2017,08,09,14,36,22.20
2017,08,09,14,37,22.20
2017,08,09,14,38,22.10
2017,08,09,14,39,22.10
2017,08,09,14,40,22.10
2017,08,09,14,41,22.20
2017,08,09,14,42,22.40
2017,08,09,14,43,22.50
2017,08,09,14,44,22.60
2017,08,09,14,45,22.70
2017,08,09,14,46,22.80
2017,08,09,14,47,22.90
2017,08,09,14,48,23.00
2017,08,09,14,49,23.00
2017,08,09,14,50,23.10
2017,08,09,14,51,23.10
2017,08,09,14,52,23.10
2017,08,09,14,53,23.10
2017,08,09,14,54,23.10
2017,08,09,14,55,23.00
2017,08,09,14,56,23.10
2017,08,09,14,57,23.20
2017,08,09,14,58,23.30
2017,08,09,14,59,23.30
2017,08,09,15,00,23.30
2017,08,09,15,01,23.30
2017,08,09,15,02,23.30
2017,08,09,15,03,23.30
2017,08,09,15,04,23.20
2017,08,09,15,05,23.20
2017,08,09,15,06,23.20
2017,08,09,15,07,23.20
2017,08,09,15,08,23.20
2017,08,09,15,09,23.30
2017,08,09,15,10,23.30
2017,08,09,15,11,23.40
2017,08,09,15,12,23.50
2017,08,09,15,13,23.60
2017,08,09,15,14,23.70
2017,08,09,15,15,23.80
2017,08,09,15,16,23.90
2017,08,09,15,17,23.90
2017,08,09,15,18,23.90
2017,08,09,15,19,23.90
2017,08,09,15,20,23.90
2017,08,09,15,21,23.90
2017,08,09,15,22,23.90
2017,08,09,15,23,23.80
2017,08,09,15,24,23.80
2017,08,09,15,25,23.80
2017,08,09,15,26,23.80
2017,08,09,15,27,23.70
2017,08,09,15,28,23.60
2017,08,09,15,29,23.50
2017,08,09,15,30,23.50
2017,08,09,15,31,23.40
2017,08,09,15,32,23.40
2017,08,09,15,33,23.40
2017,08,09,15,34,23.40
2017,08,09,15,35,23.40
2017,08,09,15,36,23.40
2017,08,09,15,37,23.40
2017,08,09,15,38,23.40
2017,08,09,15,39,23.40
2017,08,09,15,40,23.40
2017,08,09,15,41,23.40
2017,08,09,15,42,23.30
2017,08,09,15,43,23.30
2017,08,09,15,44,23.30
2017,08,09,15,45,23.20
2017,08,09,15,46,23.20
2017,08,09,15,47,23.20
2017,08,09,15,48,23.20
2017,08,09,15,49,23.20
2017,08,09,15,50,23.10
2017,08,09,15,51,23.10
2017,08,09,15,52,23.00
2017,08,09,15,53,22.90
2017,08,09,15,54,22.90
2017,08,09,15,55,22.90
2017,08,09,15,56,22.80
2017,08,09,15,57,22.80
2017,08,09,15,58,22.70
2017,08,09,15,59,22.70
2017,08,09,16,00,22.60
2017,08,09,16,01,22.60
2017,08,09,16,02,22.60
2017,08,09,16,03,22.70
2017,08,09,16,04,22.70
2017,08,09,16,05,22.80
2017,08,09,16,06,22.90
2017,08,09,16,07,22.90
2017,08,09,16,08,23.00
2017,08,09,16,09,23.00
2017,08,09,16,10,23.00
2017,08,09,16,11,23.00
2017,08,09,16,12,23.10
2017,08,09,16,13,23.10
2017,08,09,16,14,23.10
2017,08,09,16,15,23.00
2017,08,09,16,16,23.10
2017,08,09,16,17,23.10
2017,08,09,16,18,23.20
2017,08,09,16,19,23.20
2017,08,09,16,20,23.20
2017,08,09,16,21,23.20
2017,08,09,16,22,23.20
2017,08,09,16,23,23.10
2017,08,09,16,24,23.10
2017,08,09,16,25,23.00
2017,08,09,16,26,22.90
2017,08,09,16,27,22.80
2017,08,09,16,28,22.80
2017,08,09,16,29,22.80
2017,08,09,16,30,22.70
2017,08,09,16,31,22.70
2017,08,09,16,32,22.70
2017,08,09,16,33,22.70
2017,08,09,16,34,22.70
2017,08,09,16,35,22.70
2017,08,09,16,36,22.70
2017,08,09,16,37,22.70
2017,08,09,16,38,22.70
2017,08,09,16,39,22.70
2017,08,09,16,40,22.80
2017,08,09,16,41,22.80
2017,08,09,16,42,22.80
2017,08,09,16,43,22.80
2017,08,09,16,44,22.90
2017,08,09,16,45,22.90
2017,08,09,16,46,22.90
2017,08,09,16,47,22.80
2017,08,09,16,48,22.90
2017,08,09,16,49,23.00
2017,08,09,16,50,23.10
2017,08,09,16,51,23.30
2017,08,09,16,52,23.30
2017,08,09,16,53,23.30
2017,08,09,16,54,23.30
2017,08,09,16,55,23.40
2017,08,09,16,56,23.50
2017,08,09,16,57,23.50
2017,08,09,16,58,23.60
2017,08,09,16,59,23.70
2017,08,09,17,00,23.70
2017,08,09,17,01,23.70
2017,08,09,17,02,23.70
2017,08,09,17,03,23.60
2017,08,09,17,04,23.50
2017,08,09,17,05,23.30
2017,08,09,17,06,23.20
2017,08,09,17,07,23.10
2017,08,09,17,08,23.10
2017,08,09,17,09,23.00
2017,08,09,17,10,23.10
2017,08,09,17,11,23.10
2017,08,09,17,12,23.10
2017,08,09,17,13,23.10
2017,08,09,17,14,23.00
2017,08,09,17,15,22.90
2017,08,09,17,16,22.70
2017,08,09,17,17,22.50
2017,08,09,17,18,22.30
2017,08,09,17,19,22.20
2017,08,09,17,20,22.10
2017,08,09,17,21,22.10
2017,08,09,17,22,22.10
2017,08,09,17,23,22.10
2017,08,09,17,24,22.10
2017,08,09,17,25,22.00
2017,08,09,17,26,21.90
2017,08,09,17,27,21.90
2017,08,09,17,28,21.90
2017,08,09,17,29,21.90
2017,08,09,17,30,21.80
2017,08,09,17,31,21.70
2017,08,09,17,32,21.70
2017,08,09,17,33,21.50
2017,08,09,17,34,21.30
2017,08,09,17,35,21.00
2017,08,09,17,36,20.80
2017,08,09,17,37,20.70
2017,08,09,17,38,20.60
2017,08,09,17,39,20.60
2017,08,09,17,40,20.60
2017,08,09,17,41,20.60
2017,08,09,17,42,20.50
2017,08,09,17,43,20.40
2017,08,09,17,44,20.20
2017,08,09,17,45,20.10
2017,08,09,17,46,19.90
2017,08,09,17,47,19.90
2017,08,09,17,48,19.90
2017,08,09,17,49,19.90
2017,08,09,17,50,20.00
2017,08,09,17,51,20.00
2017,08,09,17,52,19.90
2017,08,09,17,53,19.90
2017,08,09,17,54,20.00
2017,08,09,17,55,20.10
2017,08,09,17,56,20.10
2017,08,09,17,57,20.20
2017,08,09,17,58,20.30
2017,08,09,17,59,20.30
2017,08,09,18,00,20.30
2017,08,09,18,01,20.30
2017,08,09,18,02,20.30
2017,08,09,18,03,20.20
2017,08,09,18,04,20.10
2017,08,09,18,05,20.00
2017,08,09,18,06,19.90
2017,08,09,18,07,19.80
2017,08,09,18,08,19.70
2017,08,09,18,09,19.70
2017,08,09,18,10,19.70
2017,08,09,18,11,19.70
2017,08,09,18,12,19.70
2017,08,09,18,13,19.70
2017,08,09,18,14,19.70
2017,08,09,18,15,19.70
2017,08,09,18,16,19.80
2017,08,09,18,17,19.90
2017,08,09,18,18,19.90
2017,08,09,18,19,20.00
2017,08,09,18,20,20.00
2017,08,09,18,21,20.00
2017,08,09,18,22,20.10
2017,08,09,18,23,20.10
2017,08,09,18,24,20.10
2017,08,09,18,25,20.10
2017,08,09,18,26,20.10
2017,08,09,18,27,20.10
2017,08,09,18,28,20.00
2017,08,09,18,29,20.00
2017,08,09,18,30,20.00
2017,08,09,18,31,20.00
2017,08,09,18,32,20.10
2017,08,09,18,33,20.10
2017,08,09,18,34,20.10
2017,08,09,18,35,20.10
2017,08,09,18,36,20.10
2017,08,09,18,37,20.10
2017,08,09,18,38,20.10
2017,08,09,18,39,20.10
2017,08,09,18,40,20.10
2017,08,09,18,41,20.20
2017,08,09,18,42,20.20
2017,08,09,18,43,20.20
2017,08,09,18,44,20.20
2017,08,09,18,45,20.30
2017,08,09,18,46,20.30
2017,08,09,18,47,20.30
2017,08,09,18,48,20.30
2017,08,09,18,49,20.30
2017,08,09,18,50,20.30
2017,08,09,18,51,20.30
2017,08,09,18,52,20.30
2017,08,09,18,53,20.30
2017,08,09,18,54,20.30
2017,08,09,18,55,20.30
2017,08,09,18,56,20.30
2017,08,09,18,57,20.30
2017,08,09,18,58,20.30
2017,08,09,18,59,20.30
2017,08,09,19,00,20.30
2017,08,09,19,01,20.20
2017,08,09,19,02,20.20
2017,08,09,19,03,20.10
2017,08,09,19,04,20.10
2017,08,09,19,05,20.00
2017,08,09,19,06,20.00
2017,08,09,19,07,20.00
2017,08,09,19,08,20.00
2017,08,09,19,09,20.10
2017,08,09,19,10,20.10
2017,08,09,19,11,20.10
2017,08,09,19,12,20.10
2017,08,09,19,13,20.20
2017,08,09,19,14,20.20
2017,08,09,19,15,20.20
2017,08,09,19,16,20.20
2017,08,09,19,17,20.20
2017,08,09,19,18,20.20
2017,08,09,19,19,20.20
2017,08,09,19,20,20.20
2017,08,09,19,21,20.20
2017,08,09,19,22,20.30
2017,08,09,19,23,20.30
2017,08,09,19,24,20.30
2017,08,09,19,25,20.30
2017,08,09,19,26,20.20
2017,08,09,19,27,20.20
2017,08,09,19,28,20.20
2017,08,09,19,29,20.20
2017,08,09,19,30,20.20
2017,08,09,19,31,20.20
2017,08,09,19,32,20.20
2017,08,09,19,33,20.20
2017,08,09,19,34,20.20
2017,08,09,19,35,20.30
2017,08,09,19,36,20.30
2017,08,09,19,37,20.30
2017,08,09,19,38,20.30
2017,08,09,19,39,20.30
2017,08,09,19,40,20.40
2017,08,09,19,41,20.40
2017,08,09,19,42,20.40
2017,08,09,19,43,20.40
2017,08,09,19,44,20.40
2017,08,09,19,45,20.40
2017,08,09,19,46,20.50
2017,08,09,19,47,20.50
2017,08,09,19,48,20.60
2017,08,09,19,49,20.60
2017,08,09,19,50,20.60
2017,08,09,19,51,20.70
2017,08,09,19,52,20.70
2017,08,09,19,53,20.80
2017,08,09,19,54,20.80
2017,08,09,19,55,20.90
2017,08,09,19,56,20.90
2017,08,09,19,57,21.00
2017,08,09,19,58,21.00
2017,08,09,19,59,21.00
2017,08,09,20,00,21.10
2017,08,09,20,01,21.10
2017,08,09,20,02,21.10
2017,08,09,20,03,21.20
2017,08,09,20,04,21.20
2017,08,09,20,05,21.20
2017,08,09,20,06,21.20
2017,08,09,20,07,21.20
2017,08,09,20,08,21.30
2017,08,09,20,09,21.30
2017,08,09,20,10,21.30
2017,08,09,20,11,21.30
2017,08,09,20,12,21.30
2017,08,09,20,13,21.30
2017,08,09,20,14,21.30
2017,08,09,20,15,21.40
2017,08,09,20,16,21.40
2017,08,09,20,17,21.40
2017,08,09,20,18,21.40
2017,08,09,20,19,21.40
2017,08,09,20,20,21.40
2017,08,09,20,21,21.40
2017,08,09,20,22,21.40
2017,08,09,20,23,21.40
2017,08,09,20,24,21.40
2017,08,09,20,25,21.40
2017,08,09,20,26,21.40
2017,08,09,20,27,21.40
2017,08,09,20,28,21.40
2017,08,09,20,29,21.40
2017,08,09,20,30,21.40
2017,08,09,20,31,21.40
2017,08,09,20,32,21.40
2017,08,09,20,33,21.40
2017,08,09,20,34,21.30
2017,08,09,20,35,21.30
2017,08,09,20,36,21.30
2017,08,09,20,37,21.30
2017,08,09,20,38,21.30
2017,08,09,20,39,21.30
2017,08,09,20,40,21.20
2017,08,09,20,41,21.20
2017,08,09,20,42,21.20
2017,08,09,20,43,21.10
2017,08,09,20,44,21.10
2017,08,09,20,45,21.10
2017,08,09,20,46,21.10
2017,08,09,20,47,21.00
2017,08,09,20,48,21.00
2017,08,09,20,49,20.90
2017,08,09,20,50,20.80
2017,08,09,20,51,20.80
2017,08,09,20,52,20.70
2017,08,09,20,53,20.60
2017,08,09,20,54,20.50
2017,08,09,20,55,20.40
2017,08,09,20,56,20.30
2017,08,09,20,57,20.20
2017,08,09,20,58,20.10
2017,08,09,20,59,20.00
2017,08,09,21,00,20.00
2017,08,09,21,01,19.90
2017,08,09,21,02,19.80
2017,08,09,21,03,19.70
2017,08,09,21,04,19.60
2017,08,09,21,05,19.60
2017,08,09,21,06,19.50
2017,08,09,21,07,19.50
2017,08,09,21,08,19.40
2017,08,09,21,09,19.40
2017,08,09,21,10,19.40
2017,08,09,21,11,19.30
2017,08,09,21,12,19.30
2017,08,09,21,13,19.30
2017,08,09,21,14,19.20
2017,08,09,21,15,19.20
2017,08,09,21,16,19.10
2017,08,09,21,17,19.00
2017,08,09,21,18,19.00
2017,08,09,21,19,18.90
2017,08,09,21,20,18.90
2017,08,09,21,21,18.80
2017,08,09,21,22,18.80
2017,08,09,21,23,18.70
2017,08,09,21,24,18.60
2017,08,09,21,25,18.60
2017,08,09,21,26,18.50
2017,08,09,21,27,18.40
2017,08,09,21,28,18.40
2017,08,09,21,29,18.30
2017,08,09,21,30,18.20
2017,08,09,21,31,18.20
2017,08,09,21,32,18.10
2017,08,09,21,33,18.10
2017,08,09,21,34,18.00
2017,08,09,21,35,17.90
2017,08,09,21,36,17.90
2017,08,09,21,37,17.80
2017,08,09,21,38,17.70
2017,08,09,21,39,17.70
2017,08,09,21,40,17.60
2017,08,09,21,41,17.60
2017,08,09,21,42,17.50
2017,08,09,21,43,17.40
2017,08,09,21,44,17.40
2017,08,09,21,45,17.40
2017,08,09,21,46,17.30
2017,08,09,21,47,17.20
2017,08,09,21,48,17.10
2017,08,09,21,49,17.00
2017,08,09,21,50,17.00
2017,08,09,21,51,16.90
2017,08,09,21,52,16.90
2017,08,09,21,53,16.80
2017,08,09,21,54,16.70
2017,08,09,21,55,16.70
2017,08,09,21,56,16.70
2017,08,09,21,57,16.60
2017,08,09,21,58,16.60
2017,08,09,21,59,16.50
2017,08,09,22,00,16.50
2017,08,09,22,01,16.50
2017,08,09,22,02,16.40
2017,08,09,22,03,16.40
2017,08,09,22,04,16.40
2017,08,09,22,05,16.40
2017,08,09,22,06,16.40